GLENN Weather Reports


Display with metric or nautical units.
time (UTC)temp
F
wind
direction
speed
MPH
gust
MPH
rain 1hr
in
rain 24hr
in
rain mn
in
humidity
%
barometer
mb
20260508121526 45 169 0.0 2.0 0.00 0.00 0.00 69 1016.4
20260508120022 46 103 2.0 3.0 0.00 0.00 0.00 69 1016.2
20260508114524 46 79 1.0 3.0 0.00 0.00 0.00 69 1016.2
20260508113014 46 83 1.0 2.0 0.00 0.00 0.00 69 1016.3
20260508111512 46 103 0.0 2.0 0.00 0.00 0.00 71 1016.2
20260508110018 45 115 3.0 3.0 0.00 0.04 0.00 72 1016.1
20260508104522 43 111 3.0 4.0 0.00 0.04 0.00 77 1016.1
20260508103033 43 140 0.0 2.0 0.00 0.04 0.00 76 1016.1
20260508101512 46 138 1.0 2.0 0.00 0.04 0.00 69 1016.0
20260508100023 46 88 2.0 3.0 0.00 0.04 0.00 71 1015.9
20260508094522 45 78 1.0 2.0 0.00 0.04 0.00 73 1016.1
20260508093024 45 360 1.0 2.0 0.00 0.04 0.00 72 1016.1
20260508091511 46 49 0.0 2.0 0.00 0.04 0.00 69 1016.0
20260508090013 47 63 0.0 0.0 0.00 0.04 0.00 66 1015.9
20260508084518 47 112 1.0 4.0 0.00 0.04 0.00 66 1015.9
20260508083024 47 66 1.0 2.0 0.00 0.04 0.00 66 1016.0
20260508081524 48 85 0.0 2.0 0.00 0.04 0.00 64 1016.0
20260508080013 47 127 0.0 1.0 0.00 0.04 0.00 68 1016.1
20260508074516 46 137 1.0 3.0 0.00 0.06 0.00 71 1016.0
20260508073019 46 132 0.0 2.0 0.00 0.08 0.00 71 1016.0
20260508071538 48 110 3.0 6.0 0.00 0.09 0.00 66 1015.9
20260508070008 48 17 0.0 3.0 0.00 0.09 0.00 65 1015.9
20260508064512 49 128 1.0 2.0 0.00 0.09 0.00 62 1016.0
20260508063029 50 108 1.0 3.0 0.00 0.09 0.00 61 1015.9
20260508061523 50 92 3.0 7.0 0.00 0.09 0.00 62 1015.9
20260508060033 49 84 1.0 2.0 0.00 0.09 0.00 67 1015.9
20260508054512 49 230 0.0 2.0 0.00 0.09 0.09 67 1015.9
20260508053018 51 241 1.0 6.0 0.00 0.09 0.09 62 1015.9
20260508051519 52 103 4.0 6.0 0.00 0.09 0.09 59 1015.8
20260508050025 52 94 4.0 6.0 0.00 0.09 0.09 59 1015.8
20260508044528 51 118 4.0 6.0 0.00 0.09 0.09 60 1015.9
20260508043014 52 112 3.0 6.0 0.00 0.09 0.09 59 1015.8
20260508041520 52 109 3.0 4.0 0.00 0.09 0.09 59 1015.8
20260508040023 52 114 3.0 4.0 0.00 0.09 0.09 60 1015.7
20260508034527 52 112 3.0 3.0 0.00 0.09 0.09 62 1015.6
20260508033028 52 111 3.0 4.0 0.00 0.09 0.09 61 1015.6
20260508031518 53 107 3.0 5.0 0.00 0.09 0.09 62 1015.4
20260508030006 53 137 5.0 9.0 0.00 0.09 0.09 61 1015.2
20260508024505 54 163 3.0 4.0 0.00 0.09 0.09 60 1014.9
20260508023009 57 280 2.0 4.0 0.00 0.09 0.09 49 1014.7
20260508021515 58 322 2.0 7.0 0.00 0.09 0.09 51 1014.6
20260508020020 57 9 2.0 4.0 0.00 0.09 0.09 51 1014.4
20260508014508 58 10 2.0 3.0 0.00 0.09 0.09 50 1014.3
20260508013009 60 352 3.0 8.0 0.00 0.09 0.09 50 1014.1
20260508011514 59 9 4.0 11.0 0.00 0.09 0.09 52 1014.1
20260508010030 58 340 3.0 10.0 0.00 0.09 0.09 54 1014.0
20260508004522 58 22 2.0 14.0 0.00 0.09 0.09 53 1014.1
20260508003009 58 315 6.0 12.0 0.00 0.09 0.09 51 1014.1
20260508000014 63 310 1.0 7.0 0.00 0.09 0.09 43 1013.3
20260507234520 65 19 3.0 8.0 0.00 0.09 0.09 44 1013.2
20260507233037 63 326 1.0 9.0 0.00 0.09 0.09 46 1013.2
20260507231510 65 336 3.0 8.0 0.00 0.09 0.09 41 1013.0
20260507230014 64 315 4.0 8.0 0.00 0.09 0.09 41 1013.0
20260507224519 64 34 3.0 9.0 0.00 0.09 0.09 41 1013.0
20260507223030 65 30 3.0 9.0 0.00 0.09 0.09 41 1013.2
20260507221533 64 315 3.0 8.0 0.00 0.09 0.09 45 1013.1
20260507220025 64 352 5.0 15.0 0.00 0.09 0.09 40 1013.3
20260507214519 63 239 2.0 11.0 0.00 0.09 0.09 41 1013.3
20260507213019 65 26 2.0 9.0 0.00 0.09 0.09 42 1013.5
20260507211525 65 360 2.0 10.0 0.00 0.09 0.09 40 1013.5
20260507210029 64 328 6.0 11.0 0.00 0.09 0.09 43 1013.6
20260507204514 65 17 5.0 9.0 0.00 0.09 0.09 43 1013.6
20260507203020 65 29 4.0 8.0 0.00 0.09 0.09 44 1013.5
20260507201522 64 37 3.0 10.0 0.00 0.09 0.09 47 1013.6
20260507200027 64 296 2.0 10.0 0.00 0.09 0.09 45 1013.6
20260507194509 63 329 5.0 9.0 0.00 0.09 0.09 43 1013.7
20260507193018 64 24 2.0 8.0 0.00 0.09 0.09 42 1013.7
20260507191522 64 13 3.0 6.0 0.00 0.09 0.09 46 1013.7
20260507190028 63 333 2.0 11.0 0.00 0.09 0.09 48 1014.0
20260507184526 62 329 6.0 14.0 0.00 0.09 0.09 44 1014.2
20260507183026 62 23 4.0 8.0 0.00 0.09 0.09 48 1014.4
20260507181505 61 333 5.0 11.0 0.00 0.09 0.09 52 1014.4
20260507180005 60 36 6.0 10.0 0.00 0.09 0.09 50 1014.3
20260507174514 60 341 2.0 6.0 0.00 0.09 0.09 50 1014.4
20260507173022 62 44 4.0 8.0 0.00 0.09 0.09 50 1014.4
20260507171512 61 70 2.0 5.0 0.00 0.09 0.09 55 1014.2
20260507170007 59 49 1.0 3.0 0.00 0.09 0.09 55 1014.2
20260507164512 58 11 1.0 4.0 0.00 0.09 0.09 55 1014.4
20260507163012 59 340 2.0 9.0 0.00 0.09 0.09 53 1014.4
20260507161519 58 327 2.0 6.0 0.00 0.09 0.09 55 1014.5
20260507160017 58 332 3.0 5.0 0.00 0.09 0.09 58 1014.4
20260507154514 57 323 2.0 4.0 0.00 0.09 0.09 58 1014.6
20260507153017 57 36 0.0 3.0 0.00 0.09 0.09 62 1014.7
20260507151516 55 25 0.0 3.0 0.00 0.09 0.09 65 1014.7
20260507150023 53 250 2.0 4.0 0.00 0.09 0.09 65 1014.7
20260507144523 52 187 1.0 4.0 0.00 0.09 0.09 66 1014.7
20260507143008 50 117 2.0 6.0 0.00 0.09 0.09 73 1014.4
20260507141518 47 115 3.0 4.0 0.00 0.09 0.09 77 1014.5
20260507140018 47 146 3.0 6.0 0.00 0.09 0.09 78 1014.4
20260507134521 47 151 4.0 7.0 0.00 0.09 0.09 78 1014.4
20260507133024 47 165 2.0 6.0 0.00 0.09 0.09 80 1014.3
20260507131510 45 149 3.0 5.0 0.00 0.09 0.09 82 1014.2
20260507130022 47 98 1.0 2.0 0.00 0.09 0.09 73 1014.2
20260507124529 47 349 1.0 3.0 0.00 0.09 0.09 72 1014.2
20260507123023 46 335 0.0 4.0 0.00 0.09 0.09 74 1014.0